Wind_Speed
24 24 24 24 24 24 24 24 24 25 25 26 26 27 27 28 29 30 31 32 33 33 34 35 37 38 39 40 42 42 43 44 45 45 45 46 47 48 50 51 52 53 54
24 24 25 25 25 26 26 26 26 26 27 27 27 28 29 30 31 32 33 34 34 35 36 38 39 40 42 43 44 45 46 47 48 49 49 48 48 49 51 52 54 55 56
25 25 26 26 27 27 27 27 27 28 28 29 29 30 30 32 33 34 35 36 37 38 39 40 42 43 44 45 46 47 48 49 50 52 53 53 53 52 51 52 54 56 57
26 26 27 27 28 28 28 28 29 29 29 30 31 32 32 33 34 36 36 37 38 40 41 42 44 45 46 47 48 50 51 51 52 54 55 57 58 59 57 55 56 57 58
26 27 28 28 28 29 29 29 30 30 31 32 33 34 35 35 36 37 38 39 40 42 43 44 46 47 48 49 50 51 52 54 55 56 57 58 60 62 63 61 60 60 60
27 28 28 29 29 30 30 31 31 32 33 34 35 36 37 37 38 39 40 41 42 44 45 46 48 49 50 51 52 53 55 56 57 59 60 61 62 63 65 65 65 65 64
28 28 29 30 30 31 31 32 33 34 35 36 37 38 39 40 40 41 42 43 45 46 47 48 49 50 52 53 54 55 57 58 59 61 62 64 65 66 68 69 69 69 68
29 29 30 31 32 32 33 34 35 36 37 38 39 40 41 42 42 43 45 46 47 48 49 50 51 52 54 55 56 57 59 60 61 63 64 66 67 68 70 71 72 72 71
30 30 31 32 33 34 35 36 37 38 39 40 41 42 43 44 45 46 47 48 49 50 51 52 53 55 56 57 58 59 61 62 64 65 67 68 69 70 71 73 74 75 74
31 31 32 33 34 35 37 38 39 39 40 41 42 43 44 45 46 47 48 50 51 52 53 54 55 56 58 59 61 62 64 65 66 68 69 70 71 72 73 75 76 78 79
31 32 33 35 36 37 38 39 40 41 42 43 44 45 46 47 48 49 50 52 53 54 55 56 58 59 61 62 63 65 66 67 68 70 71 72 73 74 75 77 78 79 80
32 33 35 36 37 38 39 40 41 42 43 44 45 46 48 49 50 51 52 54 55 56 57 59 60 62 63 65 66 67 68 69 70 72 73 74 76 77 78 79 80 81 82
34 35 36 37 38 39 40 41 42 44 45 46 47 48 49 51 52 53 54 56 57 58 60 61 63 65 66 67 68 69 70 71 72 74 75 76 78 78 79 80 81 82 83
35 36 37 38 39 40 41 42 44 45 46 47 49 50 51 52 53 55 56 58 59 61 62 64 66 67 68 69 70 71 72 73 74 76 77 79 80 80 81 82 82 83 83
37 37 38 39 41 41 42 44 45 46 47 48 50 51 52 54 55 56 58 60 61 63 64 66 68 69 70 71 72 73 74 75 76 78 79 80 80 81 82 82 82 81 80
38 39 40 41 41 42 44 45 46 47 49 50 51 53 54 55 57 58 60 62 63 65 67 68 69 70 72 73 74 75 77 78 79 79 80 80 81 81 81 80 79 78 76
40 40 41 42 42 43 44 46 47 49 50 52 53 55 56 57 59 60 62 64 65 67 68 69 70 72 73 75 76 78 79 79 80 80 80 80 80 80 79 76 74 72 69
41 41 42 42 43 44 46 47 49 50 52 53 55 56 58 59 61 62 64 66 67 68 69 70 72 74 75 77 79 80 80 80 80 80 80 79 78 76 74 72 69 66 62
41 42 42 43 44 46 47 49 50 52 53 55 57 58 59 61 63 64 66 67 68 69 71 73 74 76 77 79 80 81 80 80 79 78 78 77 74 71 69 67 64 60 57
42 42 43 45 46 48 49 51 52 53 55 57 58 59 61 63 64 65 67 68 70 71 73 75 77 78 80 80 81 81 81 80 78 76 74 71 69 66 64 63 60 56 53
43 44 45 47 48 49 51 52 54 55 57 58 59 61 62 64 65 67 69 70 72 74 76 77 78 80 81 81 81 81 81 80 76 73 68 65 64 62 61 59 56 53 50
45 46 47 48 49 50 52 53 55 57 58 59 60 61 63 65 67 69 71 73 75 77 78 79 79 80 80 80 80 80 79 76 73 68 65 62 61 60 57 54 51 49 47
46 47 48 50 51 52 54 55 57 58 59 60 61 63 65 67 69 71 73 75 78 79 80 81 81 79 78 78 78 77 74 71 68 65 62 61 59 56 52 49 47 45 42
47 48 49 50 52 53 55 57 58 59 59 61 63 65 67 69 71 73 75 78 79 80 81 81 80 79 78 76 75 72 69 66 63 61 59 57 54 51 48 45 43 40 37
48 49 50 52 53 55 56 57 58 59 61 63 65 67 69 71 73 75 78 79 80 81 82 81 80 80 77 74 71 69 65 61 59 58 55 53 49 46 44 41 39 36 34
49 50 51 53 54 55 56 58 59 61 63 65 67 70 72 74 76 78 79 80 80 80 80 80 80 78 75 71 67 64 61 58 57 56 53 49 46 43 40 37 34 33 31
Wind_Direction
285 286 287 288 289 291 292 292 291 291 292 293 294 294 294 294 295 295 295 295 295 295 294 294 294 293 293 293 292 292 291 291 290 288 287 287 287 286 286 285 284 284 283
283 284 285 287 288 289 290 290 291 291 292 293 293 294 295 295 296 296 296 296 295 295 295 295 295 294 294 294 294 293 292 292 291 290 288 286 285 286 286 286 286 285 284
281 283 285 286 288 289 289 290 291 292 292 293 294 294 295 295 296 297 297 297 296 296 296 296 295 295 295 295 295 294 293 293 292 292 290 289 286 284 283 284 284 284 284
281 282 284 286 287 288 289 290 291 291 292 293 294 295 295 296 297 297 297 297 297 297 297 297 297 297 297 296 296 296 295 294 294 293 293 292 291 289 287 285 284 284 283
281 282 284 285 287 288 289 289 290 292 293 294 294 295 296 297 298 298 298 298 298 298 299 299 299 299 298 297 297 296 296 296 295 295 294 294 293 292 291 289 288 287 286
281 282 284 285 286 287 287 289 291 292 294 294 295 296 297 298 298 299 299 299 299 299 300 300 300 299 299 298 298 298 297 297 297 296 296 295 294 293 293 292 290 289 288
280 282 283 284 285 286 287 289 291 293 294 295 295 296 297 298 298 299 299 300 300 300 300 301 301 300 300 299 299 299 299 298 298 297 297 296 296 295 294 293 292 291 290
280 282 283 284 285 286 288 289 291 293 294 295 296 297 298 299 299 300 300 300 300 301 301 301 301 301 300 300 300 300 299 299 299 298 298 298 297 296 296 295 294 293 292
281 283 283 284 286 287 288 290 292 293 294 296 297 298 299 300 300 300 300 301 301 301 302 302 302 302 302 301 301 301 301 300 300 299 299 298 298 297 297 296 296 295 293
282 283 284 285 286 287 289 291 292 294 295 296 297 298 299 300 300 301 301 301 302 302 303 303 303 303 303 302 302 302 302 301 301 300 300 299 299 298 298 297 297 296 295
282 283 284 285 287 288 290 291 293 294 295 297 298 299 300 300 301 301 301 302 302 303 303 303 303 303 303 303 303 303 302 302 302 301 301 300 300 299 299 298 298 297 296
283 284 285 286 288 289 291 292 294 295 296 297 298 299 300 300 301 301 302 303 303 304 304 304 304 304 304 304 303 303 303 302 302 302 302 301 301 300 300 299 298 298 297
284 285 286 287 288 290 291 293 294 295 296 298 299 299 300 300 301 302 303 303 304 304 304 305 305 305 304 304 304 303 303 303 303 303 302 302 301 300 300 299 299 298 297
285 286 287 288 289 290 292 293 295 296 297 298 299 300 300 301 302 302 303 304 304 305 305 305 305 305 305 305 304 304 304 304 304 303 303 302 301 301 300 299 299 298 298
287 287 288 289 290 291 292 294 295 296 297 298 299 300 300 301 302 303 303 304 305 305 306 306 306 306 306 305 305 305 305 304 304 304 303 303 302 301 301 300 300 299 299
287 288 289 290 291 292 293 295 296 297 298 299 299 300 301 302 303 303 304 305 305 306 306 306 306 307 306 306 306 306 306 306 305 305 304 303 303 302 302 301 301 300 299
288 289 290 291 292 293 294 295 296 297 299 299 300 300 301 302 303 304 304 305 306 306 307 307 307 307 307 307 307 307 307 306 306 306 305 304 304 303 302 301 301 300 299
289 289 290 291 293 293 294 296 297 298 299 300 300 301 302 303 303 304 305 306 306 307 307 307 308 308 308 308 308 307 307 307 307 306 306 305 305 304 303 302 301 300 299
290 291 291 292 293 294 296 297 298 299 300 300 301 302 302 303 304 305 306 306 307 307 307 308 308 308 308 308 308 308 307 307 307 307 307 306 305 304 303 303 302 301 299
290 291 292 293 294 296 297 298 299 299 300 301 302 302 303 304 305 306 306 307 307 308 308 309 309 309 309 309 308 308 308 308 308 308 307 307 306 305 304 303 302 301 299
291 292 293 294 295 297 297 298 299 300 301 302 303 303 304 305 306 306 307 307 307 308 309 309 309 310 310 309 309 309 309 309 309 309 308 307 306 306 305 303 302 301 300
292 293 294 295 296 297 298 299 300 301 302 303 303 304 305 306 306 307 307 308 308 309 309 309 310 310 310 310 310 310 310 310 309 309 308 308 307 306 304 303 301 300 300
293 294 295 296 297 299 300 300 301 302 303 304 304 305 306 306 307 307 308 308 309 309 310 310 310 310 310 310 310 310 310 309 309 309 309 309 308 306 304 302 301 301 299
295 296 297 298 299 300 301 301 302 303 304 304 305 306 306 307 308 308 309 310 310 310 310 310 310 311 311 310 310 310 310 309 308 308 309 309 308 306 304 302 301 301 299
296 297 298 299 300 301 302 302 303 304 305 306 306 307 307 308 308 309 310 310 311 311 311 311 311 311 312 311 311 311 310 309 309 309 310 309 307 305 303 301 300 299 298
297 298 299 300 301 302 302 303 304 305 306 307 307 308 308 309 309 309 310 311 311 311 311 311 311 312 312 312 311 311 311 311 311 311 311 309 308 306 303 301 298 297 296
Height
5821 5820 5818 5817 5815 5814 5812 5810 5808 5807 5805 5802 5800 5798 5796 5794 5791 5789 5787 5784 5781 5779 5776 5773 5771 5768 5765 5762 5759 5756 5753 5750 5747 5746 5744 5741 5738 5734 5731 5728 5725 5722 5719
5816 5815 5813 5812 5810 5809 5807 5805 5803 5801 5799 5797 5795 5793 5790 5788 5785 5782 5780 5777 5774 5771 5768 5765 5762 5759 5756 5753 5749 5746 5743 5739 5735 5733 5731 5730 5729 5724 5721 5716 5712 5709 5705
5811 5810 5808 5807 5805 5804 5802 5800 5798 5796 5794 5792 5789 5787 5784 5781 5778 5776 5772 5769 5766 5763 5760 5757 5753 5750 5746 5743 5739 5735 5732 5728 5724 5719 5716 5713 5713 5712 5711 5706 5701 5696 5692
5806 5804 5803 5801 5800 5798 5796 5794 5792 5790 5788 5785 5783 5780 5777 5774 5771 5768 5765 5761 5758 5755 5751 5747 5744 5740 5736 5732 5728 5724 5720 5716 5712 5707 5702 5698 5694 5691 5692 5692 5688 5683 5679
5800 5799 5797 5796 5794 5792 5791 5788 5786 5784 5781 5779 5776 5773 5770 5767 5764 5760 5757 5753 5749 5746 5742 5738 5734 5729 5725 5721 5716 5712 5707 5703 5698 5694 5689 5684 5679 5674 5670 5670 5669 5666 5662
5794 5793 5791 5790 5788 5786 5784 5782 5780 5777 5775 5772 5769 5766 5763 5759 5756 5752 5748 5744 5740 5736 5732 5727 5723 5718 5714 5709 5704 5699 5694 5689 5684 5679 5674 5669 5664 5659 5653 5650 5649 5646 5643
5788 5787 5785 5784 5782 5780 5778 5775 5773 5770 5767 5764 5761 5758 5755 5751 5747 5743 5739 5735 5731 5726 5722 5717 5712 5707 5702 5697 5692 5687 5681 5675 5670 5664 5659 5653 5647 5641 5635 5631 5628 5625 5623
5782 5780 5779 5777 5775 5773 5771 5768 5765 5763 5760 5756 5753 5749 5746 5742 5738 5734 5730 5725 5721 5716 5711 5706 5701 5695 5690 5684 5679 5673 5667 5661 5655 5649 5643 5637 5630 5623 5617 5611 5606 5603 5602
5775 5773 5772 5770 5768 5765 5763 5760 5758 5755 5751 5748 5744 5741 5737 5733 5728 5724 5719 5715 5710 5705 5699 5694 5688 5683 5677 5671 5665 5659 5652 5646 5640 5633 5626 5620 5613 5606 5599 5591 5584 5579 5577
5768 5766 5764 5762 5760 5757 5755 5752 5749 5746 5743 5739 5735 5731 5727 5723 5718 5713 5709 5704 5698 5693 5687 5682 5676 5669 5663 5656 5650 5644 5637 5631 5623 5616 5609 5602 5595 5587 5580 5572 5565 5557 5551
5760 5758 5756 5754 5752 5749 5746 5743 5740 5737 5733 5730 5726 5721 5717 5712 5707 5702 5697 5692 5686 5680 5674 5668 5662 5655 5649 5642 5635 5628 5621 5614 5606 5599 5591 5584 5576 5568 5560 5552 5544 5536 5527
5752 5750 5748 5746 5743 5741 5738 5734 5731 5728 5724 5720 5716 5711 5706 5701 5696 5691 5685 5680 5674 5667 5661 5654 5648 5641 5634 5626 5619 5612 5604 5596 5589 5581 5573 5565 5556 5548 5540 5531 5523 5514 5505
5744 5742 5740 5737 5735 5732 5729 5725 5722 5718 5714 5710 5705 5700 5695 5690 5685 5679 5673 5667 5661 5654 5647 5640 5633 5625 5618 5610 5602 5595 5587 5579 5571 5562 5553 5545 5536 5527 5518 5509 5501 5492 5483
5736 5734 5731 5728 5725 5722 5719 5716 5712 5708 5704 5699 5694 5689 5684 5678 5673 5667 5660 5654 5647 5640 5633 5625 5617 5609 5601 5593 5585 5577 5569 5561 5552 5542 5533 5524 5514 5505 5496 5487 5478 5469 5460
5727 5725 5722 5719 5716 5713 5709 5706 5702 5697 5693 5688 5683 5678 5672 5666 5660 5654 5647 5640 5633 5625 5618 5610 5602 5593 5584 5576 5567 5559 5551 5542 5533 5523 5513 5502 5492 5482 5472 5463 5454 5445 5436
5717 5715 5712 5709 5706 5703 5699 5695 5691 5686 5682 5677 5671 5665 5660 5654 5647 5640 5633 5626 5619 5611 5602 5594 5586 5577 5567 5558 5548 5539 5531 5522 5512 5502 5492 5481 5471 5460 5450 5440 5430 5421 5412
5708 5705 5702 5699 5696 5692 5689 5684 5680 5675 5670 5665 5659 5653 5647 5640 5634 5627 5619 5612 5604 5596 5587 5578 5569 5560 5550 5539 5530 5520 5510 5501 5491 5480 5469 5459 5449 5437 5427 5419 5410 5402 5392
5698 5695 5692 5689 5685 5682 5678 5673 5669 5663 5658 5652 5646 5640 5633 5627 5620 5612 5605 5596 5588 5580 5571 5562 5552 5543 5532 5521 5510 5500 5490 5481 5470 5458 5447 5437 5427 5416 5405 5398 5391 5384 5376
5688 5685 5682 5678 5675 5671 5666 5662 5657 5651 5645 5639 5633 5626 5620 5613 5605 5598 5589 5581 5573 5564 5555 5545 5535 5525 5514 5502 5490 5478 5469 5460 5450 5439 5427 5415 5405 5397 5386 5378 5372 5366 5360
5677 5674 5671 5667 5663 5659 5655 5650 5644 5638 5632 5626 5619 5612 5605 5598 5590 5582 5573 5565 5556 5547 5537 5528 5516 5505 5494 5482 5470 5457 5448 5440 5431 5420 5409 5396 5385 5377 5368 5360 5353 5348 5343
5667 5663 5660 5656 5652 5647 5643 5637 5632 5626 5619 5612 5605 5598 5590 5582 5574 5566 5557 5548 5539 5530 5520 5510 5500 5487 5474 5462 5450 5437 5425 5416 5408 5399 5390 5380 5369 5360 5352 5344 5337 5331 5327
5656 5652 5649 5644 5640 5635 5630 5625 5619 5613 5606 5599 5591 5584 5575 5567 5558 5550 5540 5530 5520 5511 5501 5490 5481 5469 5455 5442 5430 5418 5406 5395 5386 5379 5371 5362 5353 5345 5337 5329 5323 5317 5313
5645 5641 5637 5632 5627 5622 5617 5611 5605 5598 5592 5584 5577 5569 5561 5551 5542 5532 5523 5513 5502 5491 5480 5469 5459 5450 5438 5425 5411 5400 5389 5378 5368 5361 5353 5345 5337 5329 5323 5316 5310 5304 5300
5633 5629 5624 5619 5614 5609 5603 5597 5591 5584 5577 5570 5562 5554 5545 5536 5526 5515 5505 5494 5483 5471 5460 5448 5438 5428 5419 5407 5394 5383 5373 5363 5353 5345 5338 5330 5322 5315 5309 5303 5298 5293 5289
5621 5616 5612 5606 5601 5595 5589 5583 5576 5569 5563 5555 5547 5538 5529 5519 5509 5499 5488 5476 5465 5450 5438 5427 5416 5406 5398 5388 5375 5365 5356 5347 5338 5330 5324 5317 5310 5303 5297 5292 5287 5283 5279
5608 5604 5599 5593 5588 5581 5575 5568 5561 5554 5547 5539 5531 5521 5512 5502 5491 5481 5472 5459 5446 5434 5420 5406 5395 5385 5375 5366 5358 5348 5339 5331 5323 5315 5309 5303 5296 5290 5285 5281 5277 5274 5270